Time,TemperatureF,DewpointF,PressureIn,WindDirection,WindDirectionDegrees,WindSpeedMPH,WindSpeedGustMPH,Humidity,HourlyPrecipIn,Conditions,Clouds,dailyrainin,SolarRadiationWatts/m^2,SoftwareType,DateUTC
2013-02-14 00:01:00,20.0,18.0,-100.00,ESE,107,10.0,14.0,92,0.00,,,0.00,0.700000,,2013-02-14 09:01:00,
2013-02-14 00:11:00,20.0,18.0,-100.00,ESE,107,10.0,14.0,92,0.00,,,0.00,0.700000,,2013-02-14 09:11:00,
2013-02-14 00:21:00,20.0,18.0,-100.00,ESE,107,10.0,14.0,92,0.00,,,0.00,0.700000,,2013-02-14 09:21:00,
2013-02-14 00:31:00,20.0,18.0,-100.00,ESE,107,10.0,14.0,92,0.00,,,0.00,0.700000,,2013-02-14 09:31:00,
2013-02-14 00:41:00,20.0,18.0,-100.00,ESE,107,10.0,14.0,92,0.00,,,0.00,0.700000,,2013-02-14 09:41:00,
2013-02-14 01:02:00,20.0,19.0,-100.00,East,100,11.0,14.0,93,0.00,,,0.00,0.700000,,2013-02-14 10:02:00,
2013-02-14 01:11:00,20.0,19.0,-100.00,East,100,11.0,14.0,93,0.00,,,0.00,0.700000,,2013-02-14 10:11:00,
2013-02-14 01:21:00,20.0,19.0,-100.00,East,100,11.0,14.0,93,0.00,,,0.00,0.700000,,2013-02-14 10:21:00,
2013-02-14 01:31:00,20.0,19.0,-100.00,East,100,11.0,14.0,93,0.00,,,0.00,0.700000,,2013-02-14 10:31:00,
2013-02-14 01:41:00,20.0,19.0,-100.00,East,100,11.0,14.0,93,0.00,,,0.00,0.700000,,2013-02-14 10:41:00,
2013-02-14 02:01:00,21.0,20.0,-100.00,ESE,109,12.0,14.0,93,0.00,,,0.00,0.700000,,2013-02-14 11:01:00,
2013-02-14 02:11:00,21.0,20.0,-100.00,ESE,109,12.0,14.0,93,0.00,,,0.00,0.700000,,2013-02-14 11:11:00,
2013-02-14 02:21:00,21.0,20.0,-100.00,ESE,109,12.0,14.0,93,0.00,,,0.00,0.700000,,2013-02-14 11:21:00,
2013-02-14 02:31:00,21.0,20.0,-100.00,ESE,109,12.0,14.0,93,0.00,,,0.00,0.700000,,2013-02-14 11:31:00,
2013-02-14 02:41:00,21.0,20.0,-100.00,ESE,109,12.0,14.0,93,0.00,,,0.00,0.700000,,2013-02-14 11:41:00,
2013-02-14 03:01:00,22.0,21.0,-100.00,ESE,108,13.0,16.0,94,0.00,,,0.00,0.700000,,2013-02-14 12:01:00,
2013-02-14 03:11:00,22.0,21.0,-100.00,ESE,108,13.0,16.0,94,0.00,,,0.00,0.700000,,2013-02-14 12:11:00,
2013-02-14 03:22:00,22.0,21.0,-100.00,ESE,108,13.0,16.0,94,0.00,,,0.00,0.700000,,2013-02-14 12:22:00,
2013-02-14 03:31:00,22.0,21.0,-100.00,ESE,108,13.0,16.0,94,0.00,,,0.00,0.700000,,2013-02-14 12:31:00,
2013-02-14 03:41:00,22.0,21.0,-100.00,ESE,108,13.0,16.0,94,0.00,,,0.00,0.700000,,2013-02-14 12:41:00,
2013-02-14 04:01:00,23.0,22.0,-100.00,ESE,111,13.0,16.0,94,0.00,,,0.00,0.700000,,2013-02-14 13:01:00,
2013-02-14 04:11:00,23.0,22.0,-100.00,ESE,111,13.0,16.0,94,0.00,,,0.00,0.700000,,2013-02-14 13:11:00,
2013-02-14 04:21:00,23.0,22.0,-100.00,ESE,111,13.0,16.0,94,0.00,,,0.00,0.700000,,2013-02-14 13:21:00,
2013-02-14 04:31:00,23.0,22.0,-100.00,ESE,111,13.0,16.0,94,0.00,,,0.00,0.700000,,2013-02-14 13:31:00,
2013-02-14 04:41:00,23.0,22.0,-100.00,ESE,111,13.0,16.0,94,0.00,,,0.00,0.700000,,2013-02-14 13:41:00,
2013-02-14 05:01:00,23.0,21.0,-100.00,ESE,112,13.0,17.0,94,0.00,,,0.00,0.700000,,2013-02-14 14:01:00,
2013-02-14 05:11:00,23.0,21.0,-100.00,ESE,112,13.0,17.0,94,0.00,,,0.00,0.700000,,2013-02-14 14:11:00,
2013-02-14 05:21:00,23.0,21.0,-100.00,ESE,112,13.0,17.0,94,0.00,,,0.00,0.700000,,2013-02-14 14:21:00,
2013-02-14 05:31:00,23.0,21.0,-100.00,ESE,112,13.0,17.0,94,0.00,,,0.00,0.700000,,2013-02-14 14:31:00,
2013-02-14 05:41:00,23.0,21.0,-100.00,ESE,112,13.0,17.0,94,0.00,,,0.00,0.700000,,2013-02-14 14:41:00,
2013-02-14 06:01:00,23.0,21.0,-100.00,ESE,110,11.0,16.0,94,0.00,,,0.00,0.700000,,2013-02-14 15:01:00,
2013-02-14 06:11:00,23.0,21.0,-100.00,ESE,110,11.0,16.0,94,0.00,,,0.00,0.700000,,2013-02-14 15:11:00,
2013-02-14 06:21:00,23.0,21.0,-100.00,ESE,110,11.0,16.0,94,0.00,,,0.00,0.700000,,2013-02-14 15:21:00,
2013-02-14 06:31:00,23.0,21.0,-100.00,ESE,110,11.0,16.0,94,0.00,,,0.00,0.700000,,2013-02-14 15:31:00,
2013-02-14 06:41:00,23.0,21.0,-100.00,ESE,110,11.0,16.0,94,0.00,,,0.00,0.700000,,2013-02-14 15:41:00,
2013-02-14 07:01:00,21.0,20.0,-100.00,East,83,8.0,15.0,93,0.00,,,0.00,0.700000,,2013-02-14 16:01:00,
2013-02-14 07:11:00,21.0,20.0,-100.00,East,83,8.0,15.0,93,0.00,,,0.00,0.700000,,2013-02-14 16:11:00,
2013-02-14 07:21:00,21.0,20.0,-100.00,East,83,8.0,15.0,93,0.00,,,0.00,0.700000,,2013-02-14 16:21:00,
2013-02-14 07:31:00,21.0,20.0,-100.00,East,83,8.0,15.0,93,0.00,,,0.00,0.700000,,2013-02-14 16:31:00,
2013-02-14 07:41:00,21.0,20.0,-100.00,East,83,8.0,15.0,93,0.00,,,0.00,0.700000,,2013-02-14 16:41:00,
2013-02-14 08:01:00,21.0,19.0,-100.00,East,88,8.0,12.0,93,0.00,,,0.00,0.700000,,2013-02-14 17:01:00,
2013-02-14 08:11:00,21.0,19.0,-100.00,East,88,8.0,12.0,93,0.00,,,0.00,0.700000,,2013-02-14 17:11:00,
2013-02-14 08:21:00,21.0,19.0,-100.00,East,88,8.0,12.0,93,0.00,,,0.00,0.700000,,2013-02-14 17:21:00,
2013-02-14 08:31:00,21.0,19.0,-100.00,East,88,8.0,12.0,93,0.00,,,0.00,0.700000,,2013-02-14 17:31:00,
2013-02-14 08:41:00,21.0,19.0,-100.00,East,88,8.0,12.0,93,0.00,,,0.00,0.700000,,2013-02-14 17:41:00,
2013-02-14 09:01:00,21.0,19.0,-100.00,East,88,8.0,10.0,93,0.00,,,0.00,1.200000,,2013-02-14 18:01:00,
2013-02-14 09:11:00,21.0,19.0,-100.00,East,88,8.0,10.0,93,0.00,,,0.00,1.200000,,2013-02-14 18:11:00,
2013-02-14 09:22:00,21.0,19.0,-100.00,East,88,8.0,10.0,93,0.00,,,0.00,1.200000,,2013-02-14 18:22:00,
2013-02-14 09:31:00,21.0,19.0,-100.00,East,88,8.0,10.0,93,0.00,,,0.00,1.200000,,2013-02-14 18:31:00,
2013-02-14 09:41:00,21.0,19.0,-100.00,East,88,8.0,10.0,93,0.00,,,0.00,1.200000,,2013-02-14 18:41:00,
2013-02-14 10:02:00,21.0,20.0,-100.00,East,84,9.0,10.0,93,0.00,,,0.00,17.400000,,2013-02-14 19:02:00,
2013-02-14 10:11:00,21.0,20.0,-100.00,East,84,9.0,10.0,93,0.00,,,0.00,17.400000,,2013-02-14 19:11:00,
2013-02-14 10:21:00,21.0,20.0,-100.00,East,84,9.0,10.0,93,0.00,,,0.00,17.400000,,2013-02-14 19:21:00,
2013-02-14 10:31:00,21.0,20.0,-100.00,East,84,9.0,10.0,93,0.00,,,0.00,17.400000,,2013-02-14 19:31:00,
2013-02-14 10:41:00,21.0,20.0,-100.00,East,84,9.0,10.0,93,0.00,,,0.00,17.400000,,2013-02-14 19:41:00,
2013-02-14 11:01:00,22.0,20.0,-100.00,ENE,75,8.0,11.0,93,0.00,,,0.00,57.000000,,2013-02-14 20:01:00,
2013-02-14 11:11:00,22.0,20.0,-100.00,ENE,75,8.0,11.0,93,0.00,,,0.00,57.000000,,2013-02-14 20:11:00,
2013-02-14 11:21:00,22.0,20.0,-100.00,ENE,75,8.0,11.0,93,0.00,,,0.00,57.000000,,2013-02-14 20:21:00,
2013-02-14 11:31:00,22.0,20.0,-100.00,ENE,75,8.0,11.0,93,0.00,,,0.00,57.000000,,2013-02-14 20:31:00,
2013-02-14 11:41:00,22.0,20.0,-100.00,ENE,75,8.0,11.0,93,0.00,,,0.00,57.000000,,2013-02-14 20:41:00,
2013-02-14 12:02:00,22.0,20.0,-100.00,ENE,74,9.0,9.0,93,0.00,,,0.00,170.300003,,2013-02-14 21:02:00,
2013-02-14 12:11:00,22.0,20.0,-100.00,ENE,74,9.0,9.0,93,0.00,,,0.00,170.300003,,2013-02-14 21:11:00,
2013-02-14 12:21:00,22.0,20.0,-100.00,ENE,74,9.0,9.0,93,0.00,,,0.00,170.300003,,2013-02-14 21:21:00,
2013-02-14 12:31:00,22.0,20.0,-100.00,ENE,74,9.0,9.0,93,0.00,,,0.00,170.300003,,2013-02-14 21:31:00,
2013-02-14 12:41:00,22.0,20.0,-100.00,ENE,74,9.0,9.0,93,0.00,,,0.00,170.300003,,2013-02-14 21:41:00,
2013-02-14 13:02:00,22.0,20.0,-100.00,ENE,77,5.0,11.0,93,0.00,,,0.00,191.600006,,2013-02-14 22:02:00,
2013-02-14 13:11:00,22.0,20.0,-100.00,ENE,77,5.0,11.0,93,0.00,,,0.00,191.600006,,2013-02-14 22:11:00,
2013-02-14 13:21:00,22.0,20.0,-100.00,ENE,77,5.0,11.0,93,0.00,,,0.00,191.600006,,2013-02-14 22:21:00,
2013-02-14 13:31:00,22.0,20.0,-100.00,ENE,77,5.0,11.0,93,0.00,,,0.00,191.600006,,2013-02-14 22:31:00,
2013-02-14 13:41:00,22.0,20.0,-100.00,ENE,77,5.0,11.0,93,0.00,,,0.00,191.600006,,2013-02-14 22:41:00,
2013-02-14 14:01:00,23.0,21.0,-100.00,ENE,68,4.0,10.0,93,0.00,,,0.00,190.300003,,2013-02-14 23:01:00,
2013-02-14 14:11:00,23.0,21.0,-100.00,ENE,68,4.0,10.0,93,0.00,,,0.00,190.300003,,2013-02-14 23:11:00,
2013-02-14 14:21:00,23.0,21.0,-100.00,ENE,68,4.0,10.0,93,0.00,,,0.00,190.300003,,2013-02-14 23:21:00,
2013-02-14 14:31:00,23.0,21.0,-100.00,ENE,68,4.0,10.0,93,0.00,,,0.00,190.300003,,2013-02-14 23:31:00,
2013-02-14 14:41:00,23.0,21.0,-100.00,ENE,68,4.0,10.0,93,0.00,,,0.00,190.300003,,2013-02-14 23:41:00,
2013-02-14 15:01:00,23.0,21.0,-100.00,ENE,71,3.0,5.0,93,0.00,,,0.00,201.699997,,2013-02-15 00:01:00,
2013-02-14 15:11:00,23.0,21.0,-100.00,ENE,71,3.0,5.0,93,0.00,,,0.00,201.699997,,2013-02-15 00:11:00,
2013-02-14 15:21:00,23.0,21.0,-100.00,ENE,71,3.0,5.0,93,0.00,,,0.00,201.699997,,2013-02-15 00:21:00,
2013-02-14 15:31:00,23.0,21.0,-100.00,ENE,71,3.0,5.0,93,0.00,,,0.00,201.699997,,2013-02-15 00:31:00,
2013-02-14 15:41:00,23.0,21.0,-100.00,ENE,71,3.0,5.0,93,0.00,,,0.00,201.699997,,2013-02-15 00:41:00,
2013-02-14 16:02:00,22.0,21.0,-100.00,East,86,3.0,4.0,94,0.00,,,0.00,153.899994,,2013-02-15 01:02:00,
2013-02-14 16:11:00,22.0,21.0,-100.00,East,86,3.0,4.0,94,0.00,,,0.00,153.899994,,2013-02-15 01:11:00,
2013-02-14 16:21:00,22.0,21.0,-100.00,East,86,3.0,4.0,94,0.00,,,0.00,153.899994,,2013-02-15 01:21:00,
2013-02-14 16:31:00,22.0,21.0,-100.00,East,86,3.0,4.0,94,0.00,,,0.00,153.899994,,2013-02-15 01:31:00,
2013-02-14 16:41:00,22.0,21.0,-100.00,East,86,3.0,4.0,94,0.00,,,0.00,153.899994,,2013-02-15 01:41:00,
2013-02-14 17:01:00,23.0,22.0,-100.00,North,0,0.0,4.0,94,0.00,,,0.00,78.900002,,2013-02-15 02:01:00,
2013-02-14 17:11:00,23.0,22.0,-100.00,North,0,0.0,4.0,94,0.00,,,0.00,78.900002,,2013-02-15 02:11:00,
2013-02-14 17:21:00,23.0,22.0,-100.00,North,0,0.0,4.0,94,0.00,,,0.00,78.900002,,2013-02-15 02:21:00,
2013-02-14 17:31:00,23.0,22.0,-100.00,North,0,0.0,4.0,94,0.00,,,0.00,78.900002,,2013-02-15 02:31:00,
2013-02-14 17:41:00,23.0,22.0,-100.00,North,0,0.0,4.0,94,0.00,,,0.00,78.900002,,2013-02-15 02:41:00,
2013-02-14 18:02:00,22.0,20.0,-100.00,WSW,237,0.0,3.0,94,0.00,,,0.00,34.200001,,2013-02-15 03:02:00,
2013-02-14 18:11:00,22.0,20.0,-100.00,WSW,237,0.0,3.0,94,0.00,,,0.00,34.200001,,2013-02-15 03:11:00,
2013-02-14 18:21:00,22.0,20.0,-100.00,WSW,237,0.0,3.0,94,0.00,,,0.00,34.200001,,2013-02-15 03:21:00,
2013-02-14 18:32:00,22.0,20.0,-100.00,WSW,237,0.0,3.0,94,0.00,,,0.00,34.200001,,2013-02-15 03:32:00,
2013-02-14 18:41:00,22.0,20.0,-100.00,WSW,237,0.0,3.0,94,0.00,,,0.00,34.200001,,2013-02-15 03:41:00,
2013-02-14 19:01:00,23.0,21.0,-100.00,SSE,148,1.0,1.0,94,0.00,,,0.00,1.700000,,2013-02-15 04:01:00,
2013-02-14 19:11:00,23.0,21.0,-100.00,SSE,148,1.0,1.0,94,0.00,,,0.00,1.700000,,2013-02-15 04:11:00,
2013-02-14 19:21:00,23.0,21.0,-100.00,SSE,148,1.0,1.0,94,0.00,,,0.00,1.700000,,2013-02-15 04:21:00,
2013-02-14 19:31:00,23.0,21.0,-100.00,SSE,148,1.0,1.0,94,0.00,,,0.00,1.700000,,2013-02-15 04:31:00,
2013-02-14 19:41:00,23.0,21.0,-100.00,SSE,148,1.0,1.0,94,0.00,,,0.00,1.700000,,2013-02-15 04:41:00,
2013-02-14 20:02:00,22.0,21.0,-100.00,WSW,245,0.0,2.0,94,0.00,,,0.00,0.700000,,2013-02-15 05:02:00,
2013-02-14 20:11:00,22.0,21.0,-100.00,WSW,245,0.0,2.0,94,0.00,,,0.00,0.700000,,2013-02-15 05:11:00,
2013-02-14 20:22:00,22.0,21.0,-100.00,WSW,245,0.0,2.0,94,0.00,,,0.00,0.700000,,2013-02-15 05:22:00,
2013-02-14 20:32:00,22.0,21.0,-100.00,WSW,245,0.0,2.0,94,0.00,,,0.00,0.700000,,2013-02-15 05:32:00,
2013-02-14 20:41:00,22.0,21.0,-100.00,WSW,245,0.0,2.0,94,0.00,,,0.00,0.700000,,2013-02-15 05:41:00,
2013-02-14 21:02:00,21.0,20.0,-100.00,WSW,241,0.0,1.0,93,0.00,,,0.00,0.700000,,2013-02-15 06:02:00,
2013-02-14 21:11:00,21.0,20.0,-100.00,WSW,241,0.0,1.0,93,0.00,,,0.00,0.700000,,2013-02-15 06:11:00,
2013-02-14 21:21:00,21.0,20.0,-100.00,WSW,241,0.0,1.0,93,0.00,,,0.00,0.700000,,2013-02-15 06:21:00,
2013-02-14 21:31:00,21.0,20.0,-100.00,WSW,241,0.0,1.0,93,0.00,,,0.00,0.700000,,2013-02-15 06:31:00,
2013-02-14 21:41:00,21.0,20.0,-100.00,WSW,241,0.0,1.0,93,0.00,,,0.00,0.700000,,2013-02-15 06:41:00,
2013-02-14 22:01:00,19.0,16.0,-100.00,WSW,248,0.0,0.0,91,0.00,,,0.00,0.700000,,2013-02-15 07:01:00,
2013-02-14 22:11:00,19.0,16.0,-100.00,WSW,248,0.0,0.0,91,0.00,,,0.00,0.700000,,2013-02-15 07:11:00,
2013-02-14 22:21:00,19.0,16.0,-100.00,WSW,248,0.0,0.0,91,0.00,,,0.00,0.700000,,2013-02-15 07:21:00,
2013-02-14 22:31:00,19.0,16.0,-100.00,WSW,248,0.0,0.0,91,0.00,,,0.00,0.700000,,2013-02-15 07:31:00,
2013-02-14 22:41:00,19.0,16.0,-100.00,WSW,248,0.0,0.0,91,0.00,,,0.00,0.700000,,2013-02-15 07:41:00,